Regional Weather Roundup
Issued by NWS

Home | Current Version | Previous Version | Text Only | Print | Product List | Glossary On
Versions: 1 2 3 4 5 6 7 8 9 10 11 12 13 14 15 16 17 18 19 20 21 22 23 24 25 26 27 28
000
ASUS45 KCYS 272310
RWRWY

WYOMING REGIONAL WEATHER ROUNDUP
NATIONAL WEATHER SERVICE CHEYENNE WY
500 PM MDT MON MAR 27 2017

NOTE:  "FAIR" INDICATES FEW OR NO CLOUDS BELOW 12,000 FEET
WITH NO SIGNIFICANT WEATHER AND/OR OBSTRUCTIONS TO VISIBILITY.

WYZ001-280000-
YELLOWSTONE NATIONAL PARK

CITY           SKY/WX    TMP DP  RH WIND       PRES   REMARKS
LK YELLOWSTONE   N/A     32  28  85 CALM      29.93R
W YELLOWSTONE  NOT AVBL

$$
WYZ002>013-054>058-071-098>099-280000-
NORTHERN WYOMING

CITY           SKY/WX    TMP DP  RH WIND       PRES   REMARKS
JACKSON        MOSUNNY   37  34  87 W12       29.89R WCI  30
CODY           FAIR      55  24  30 SE8       29.82S
GREYBULL       FAIR      61  22  22 VRB3      29.78S
WORLAND        FAIR      59  24  26 VRB6      29.78S
SHERIDAN       CLOUDY    58  31  35 SW5       29.81S
BUFFALO        CLOUDY    53  31  42 NE6       29.85S
GILLETTE       CLOUDY    58  28  32 N8        29.80F
HULETT         FAIR      59  32  36 E8        29.84R
NEWCASTLE      FAIR      59  21  23 CALM      29.81S

$$
WYZ014>020-022>026-101>103-280000-
CENTRAL WYOMING

CITY           SKY/WX    TMP DP  RH WIND       PRES   REMARKS
BIG PINEY      PTSUNNY   43  28  55 N9        29.85S
PINEDALE       FAIR      41  28  60 N12       29.86S
DUBOIS         CLOUDY    43  19  39 E5        29.82S
LANDER         FAIR      53  22  29 NE6       29.78S
RIVERTON       FAIR      54  21  27 CALM      29.80S
CASPER         FAIR      56  20  24 CALM      29.80S
DOUGLAS        FAIR      58  17  20 SE5       29.80S

$$
WYZ021-027>030-104>119-280000-
SOUTHERN WYOMING

CITY           SKY/WX    TMP DP  RH WIND       PRES   REMARKS
EVANSTON       SNOW      32  30  92 N18       29.84S VSB<1/4 WCI  20
KEMMERER         N/A     36  32  87 W7        29.86R WCI  30
FORT BRIDGER   CLOUDY    41  33  73 E9        29.86
ROCK SPRINGS   LGT RAIN  38  34  85 N7        29.84F WCI  33
DIXON          RAIN      42  36  78 SW17G25   29.88R
RAWLINS        CLOUDY    45  28  51 S18G26    29.84R
SARATOGA       FAIR      50  27  40 E6        29.82F
LARAMIE        PTSUNNY   49  27  42 S13       29.83F
CHEYENNE       CLOUDY    55  24  30 S8        29.81F
TORRINGTON     PTSUNNY   66  19  16 VRB6      29.76F
PINE BLUFFS    CLOUDY    59  28  31 SE13      29.82S

$$




USA.gov is the U.S. government's official web portal to all federal, state and local government web resources and services.